Saginaw, MI

12:09 AM EDT on May 24, 2017 (GMT -0400)
MBS International

Weather History for KMBS - July, 2014

Change the Weather History Date:

Thursday, July 10, 2014

  Actual Average Record
Temperature  
Mean Temperature 65 °F 71 °F  
Max Temperature 75 °F 82 °F 90 °F (2007)
Min Temperature 55 °F 60 °F 50 °F (1996)
Degree Days  
Heating Degree Days 0    
Month to date heating degree days 3  
Since 1 June heating degree days 17  
Since 1 July heating degree days 3  
Cooling Degree Days 0    
Month to date cooling degree days 41  
Year to date cooling degree days 246  
Since 1 June cooling degree days 202  
Growing Degree Days 15 (Base 50)    
Moisture  
Dew Point 51 °F    
Average Humidity 61    
Maximum Humidity 86    
Minimum Humidity 36    
Precipitation  
Precipitation 0.00 in 0.07 in 0.99 in (2003)
Month to date precipitation 1.90 0.83  
Year to date precipitation 15.86 15.46  
Snow  
Snow 0.00 in - - ()
Month to date snowfall 0.0  
Since 1 June snowfall 0.0  
Since 1 July snowfall 0.0  
Snow Depth 0.00 in    
Sea Level Pressure  
Sea Level Pressure 30.16 in    
Wind  
Wind Speed 7 mph (NNE)    
Max Wind Speed 12 mph    
Max Gust Speed 13 mph    
Visibility 10 miles    
Events      
T = Trace of Precipitation, MM = Missing Value Source: NWS Daily Summary

Daily Weather History Graph

Daily Weather History Graph

Search for Another Location

Airport or City:

Trip Planner

Search our weather history database for the weather conditions in past years. The results will help you decide how hot, cold, wet, or windy it might be!

Date:

Astronomy

Jul. 10, 2014 Rise Set
Actual Time 6:04 AM EDT 9:18 PM EDT
Civil Twilight 5:29 AM EDT 9:53 PM EDT
Nautical Twilight 4:44 AM EDT 10:38 PM EDT
Astronomical Twilight 3:49 AM EDT 11:32 PM EDT
Moon 7:28 PM EDT (7/10) 4:17 AM EDT (7/10)
Length of Visible Light 16h 23m
Length of Day
15h 13m
Waxing Gibbous, 95% of the Moon is Illuminated
Jul 10
Waxing Gibbous
Jul 12
Full
Jul 18
Last Quarter
Jul 26
New
Aug 3
First Quarter

Hourly Weather History & Observations

Time (EDT) Temp. Dew Point Humidity Pressure Visibility Wind Dir Wind Speed Gust Speed Precip Events Conditions
12:53 AM 60.1 °F 53.1 °F 78% 30.06 in 10.0 mi NNW 6.9 mph - N/A   Clear
1:53 AM 59.0 °F 53.1 °F 81% 30.07 in 10.0 mi North 8.1 mph - N/A   Clear
2:53 AM 59.0 °F 52.0 °F 78% 30.09 in 10.0 mi North 6.9 mph - N/A   Mostly Cloudy
3:53 AM 59.0 °F 51.8 °F 77% 30.10 in 10.0 mi North 6.9 mph - N/A   Overcast
4:53 AM 57.9 °F 52.0 °F 81% 30.11 in 10.0 mi North 9.2 mph - N/A   Mostly Cloudy
5:53 AM 55.4 °F 51.8 °F 88% 30.12 in 10.0 mi North 9.2 mph - N/A   Clear
6:53 AM 55.9 °F 51.1 °F 84% 30.14 in 10.0 mi North 8.1 mph - N/A   Clear
7:53 AM 57.9 °F 51.1 °F 78% 30.17 in 10.0 mi North 10.4 mph - N/A   Clear
8:53 AM 62.6 °F 53.6 °F 72% 30.17 in 10.0 mi North 10.4 mph - N/A   Clear
9:53 AM 64.9 °F 54.0 °F 68% 30.18 in 10.0 mi NE 5.8 mph - N/A   Clear
10:53 AM 68.0 °F 51.1 °F 55% 30.19 in 10.0 mi NE 10.4 mph - N/A   Clear
11:53 AM 70.0 °F 52.0 °F 53% 30.20 in 10.0 mi NNE 4.6 mph - N/A   Partly Cloudy
12:53 PM 71.1 °F 52.0 °F 51% 30.20 in 10.0 mi Variable 3.5 mph - N/A   Partly Cloudy
1:53 PM 71.1 °F 48.9 °F 45% 30.21 in 10.0 mi WSW 4.6 mph - N/A   Partly Cloudy
2:53 PM 73.0 °F 51.1 °F 46% 30.19 in 10.0 mi NE 4.6 mph - N/A   Clear
3:53 PM 73.9 °F 48.9 °F 41% 30.18 in 10.0 mi SE 5.8 mph - N/A   Clear
4:53 PM 75.0 °F 46.9 °F 37% 30.17 in 10.0 mi WSW 4.6 mph - N/A   Clear
5:53 PM 75.0 °F 46.9 °F 37% 30.17 in 10.0 mi North - - N/A   Clear
6:53 PM 73.9 °F 46.0 °F 37% 30.16 in 10.0 mi SSW 5.8 mph - N/A   Clear
7:53 PM 72.0 °F 53.1 °F 51% 30.17 in 10.0 mi East 6.9 mph - N/A   Clear
8:53 PM 68.0 °F 53.1 °F 59% 30.17 in 10.0 mi East 5.8 mph - N/A   Clear
9:53 PM 63.0 °F 53.1 °F 70% 30.18 in 10.0 mi ESE 5.8 mph - N/A   Clear
10:53 PM 63.0 °F 52.0 °F 67% 30.19 in 10.0 mi SE 5.8 mph - N/A   Clear
11:53 PM 61.0 °F 52.0 °F 72% 30.20 in 10.0 mi SE 5.8 mph - N/A   Clear